STARLINK-34577, 64719

Orbit data source: Space-Track

STARLINK-34577, 64719 is a payload satellite owned by SpaceX/Seattle (US) in LEO that was launched on Sat, 28 Jun 2025 UTC via an FALCON 9 launch vehicle from the Air Force Western Test Range (AFWTR). Payload-class satellites include a variety of spacecraft equipped with specific instruments for various scientific and technological missions. These include communications satellites like Starlink; space stations such as the ISS; scientific satellites like the Hubble; Earth observation satellites from companies like Planet Labs, Umbra, and HawkEye 360; GPS; miniature CubeSats for education and research; and military/defense satellites.

Loading next visibility...
Identifier
64719, 2025-142Z
Orbit
LEO
Country
Flag of USUS
Related business
Manufacturer
SpaceX/Seattle
Mission
Operational Commercial Communications
Bus & Motor
STARLINK V2MO, Unknown motor
Mass
575 kg wet, ~530 kg dry
Launch date (UTC)
2025-06-28 (1 year ago)
Launch vehicle
FALCON 9
Launch site
Air Force Western Test Range (AFWTR)
Object type
Payload
Rocket body
Debris
Shape & HBR
Box + 1 Pan, 17.7 m
Radar Cross Section
41.120 m², Large (>1 m²)

Expand to show TLE details & history
Last TLE update: 13 hours ago

TLE from 13 hours ago
0 STARLINK-34577
1 64719U 25142Z   26264.22186770  .00015511  00000-0  54262-3 0  9999
2 64719  69.9988 178.8649 0003708 268.8262  91.2489 15.29595041 68843
Epoch: 2026-09-21T05:19Z
TLE epoch observation values (Epoch: 2026-09-21T05:19:29.369Z)
Latitude
0.00005°
Longitude
98.88775°
Altitude
479.536 km
Speed
7.626 km/s
True Right ascension
11h 55m 27s
True Declination
0° 00' 00"
Sunlit
Object was in daylight at epoch
Visualization orbit readout
Latitude
Unknown
Longitude
Unknown
Altitude
Unknown
Speed
Unknown
Apparent Right ascension
Unknown
Apparent Declination
Unknown
Sunlit
N/A
Visualization observer readout
Local Sidereal Time
10:58:22
Azimuth
Unknown
Elevation
Unknown
Doppler factor
Unknown
Orbital elements
Apogee altitude
477.483 km
Perigee altitude
472.401 km
Semi-major axis
6,853.079 km
Eccentricity
0.00037
Inclination
69.9988°
RAAN
178.8649°
Arg. of periapsis
268.8262°
True anomaly
91.29138°
Mean anomaly
91.2489°
Eccentric anomaly
91.27014°
Mean motion
3.82573 °/min
Orbital period
94.1 mins
BSTAR
0.00054262
Loading maneuver chart data...
Computing Atmospheric mass density...
Loading historical data...
Loading historical data...
Loading historical data...
Loading historical data...
Loading historical data...
Loading historical data...
Loading historical data...

Documentation

Showing up to 5 results
|